Location: Beaver Brook Station
(42.3793°N, 71.2203°W)
Time: 07:32:55
(UTC+00:00)

Okean-O - Pass Details

Date: 29 October 2020
Orbit: 638 x 641 km, 98.2° (Epoch: 23 November)

Event Time Altitude Azimuth Distance (km) Brightness Sun altitude
Rises 22:50:33 0° 152° (SSE) 2,933 5.8 -13.3°
Reaches altitude 10° 22:52:48 10° 147° (SSE) 2,028 4.9 -13.7°
Maximum altitude 22:57:04 50° 72° (ENE) 819 2.8 -14.5°
Drops below altitude 10° 23:01:21 10° 357° (N) 2,041 5.2 -15.3°
Sets 23:03:37 0° 353° (N) 2,955 6.1 -15.7°
